[[{"header":{"parameterUnit":"m.s-1","parameterCategory":1,"la1":30.2991,"la2":30.254,"lo1":-89.0895,"lo2":-89.0444,"dy":0.0017,"dx":0.0017,"nx":28,"ny":28,"refTime":"2025-04-23T09:00:00:Z","depth":0,"parameterNumber":2,"parameterNumberName":"U-component_of_WINDS"},"data":[0,0,0,0,0,0,0,0,0,0,0,0,0,0,0,0,0,0,0,0,0,0,0,0,0,0,0,0,0,0,0,0,0,0,0,0,0,0,0,0,0,0,0,0,0,0,0,0,0,0,0,0,0,0,0,0,0,0,-1.5874,-1.5874,0,-1.5852,-1.5852,-1.5852,-1.5799,-1.5798,-1.5797,-1.5796,-1.5776,-1.5777,-1.5777,0,0,0,0,0,0,0,0,0,0,0,0,0,-1.5873,-1.5873,-1.5874,-1.5874,-1.5873,-1.5852,-1.5852,-1.5852,-1.58,-1.5798,-1.5797,-1.5796,-1.5776,-1.5777,-1.5777,0,0,0,0,0,0,0,0,0,0,0,0,0,-1.5864,-1.5873,-1.5874,-1.5845,-1.5842,-1.5852,-1.5852,-1.5852,-1.58,-1.5798,-1.5797,-1.5795,-1.5776,-1.5777,-1.5777,-1.5815,0,0,-1.5779,-1.578,0,0,0,0,0,0,0,0,-1.5865,-1.5865,-1.5849,-1.5847,-1.5844,-1.5827,-1.5844,-1.5839,-1.58,-1.5816,-1.5796,-1.5794,-1.5794,-1.5794,-1.5793,-1.5814,-1.5813,-1.578,-1.578,-1.578,-1.5781,0,0,0,0,0,0,0,-1.5866,-1.5865,-1.5865,-1.5849,-1.5846,-1.5834,-1.5831,-1.5843,-1.5815,-1.5815,-1.5811,-1.5809,-1.5793,-1.5793,-1.5792,-1.5813,-1.578,-1.578,-1.5781,-1.5781,-1.5863,-1.5865,0,0,0,0,0,0,-1.587,-1.5866,-1.5866,-1.5865,-1.585,-1.5835,-1.5832,-1.5834,-1.5815,-1.581,-1.581,-1.5806,-1.5792,-1.5792,-1.5791,-1.5834,-1.578,-1.5781,-1.5781,-1.5861,-1.5863,-1.5865,0,0,0,0,0,0,-1.587,-1.5871,-1.5867,-1.5864,-1.5863,-1.5837,-1.584,-1.5834,-1.5834,-1.5811,-1.5806,-1.5815,-1.5791,-1.579,-1.5809,-1.5832,-1.5781,-1.5782,-1.5859,-1.5862,-1.5864,-1.5919,0,0,0,0,0,0,-1.587,-1.5871,-1.5884,-1.5865,-1.5863,-1.5885,-1.5841,-1.5835,-1.5835,-1.583,-1.5814,-1.581,-1.579,-1.5808,-1.581,-1.5833,-1.5783,-1.5857,-1.5861,-1.5864,-1.5915,-1.5924,-1.5931,0,0,0,0,0,-1.5871,-1.5901,-1.5885,-1.5886,-1.5879,-1.5886,-1.5885,-1.586,-1.5837,-1.5851,-1.5836,-1.5811,-1.583,-1.5811,-1.5812,-1.5835,-1.5856,-1.586,-1.5863,-1.5912,-1.5922,-1.593,0,0,0,0,0,0,-1.5925,-1.5898,-1.588,-1.5905,-1.5898,-1.5877,-1.5894,-1.5871,-1.5871,-1.5866,-1.5836,-1.5833,-1.5856,-1.5847,-1.5827,-1.5871,-1.5839,-1.5843,-1.5875,-1.5884,-1.5892,-1.5893,-1.5783,0,0,0,0,0,-1.594,-1.5947,-1.5923,-1.5948,-1.5945,-1.592,-1.5922,-1.5903,-1.5895,-1.5892,-1.5878,-1.5872,-1.5876,-1.588,-1.5883,-1.5914,-1.591,-1.5931,-1.5938,-1.5945,-1.5949,-1.5965,-1.5974,-1.5878,-1.5878,-1.5878,0,0,-1.5971,-1.5957,-1.5963,-1.5958,-1.595,-1.5959,-1.5918,-1.5929,-1.5935,-1.5894,-1.591,-1.59,-1.5891,-1.5917,-1.5927,-1.591,-1.5975,-1.595,-1.5955,-1.5956,-1.597,-1.5979,-1.5987,-1.5881,-1.588,-1.588,0,0,-1.6031,-1.6021,-1.604,-1.6033,-1.6022,-1.6005,-1.601,-1.5992,-1.5984,-1.6,-1.5969,-1.5977,-1.5985,-1.5979,-1.5978,-1.6037,-1.6013,-1.6039,-1.6078,-1.6094,-1.6102,-1.6108,-1.6129,-1.6137,-1.6043,-1.6043,-1.6043,0,-1.6071,-1.6081,-1.6053,-1.6066,-1.6065,-1.6027,-1.6047,-1.6042,-1.6032,-1.6033,-1.6014,-1.6024,-1.6015,-1.6038,-1.6053,-1.6053,-1.6058,-1.604,-1.6103,-1.6109,-1.6115,-1.6135,-1.6143,-1.6046,-1.6046,-1.6045,-1.6045,0,-1.6131,-1.6139,-1.6156,-1.6147,-1.6148,-1.6164,-1.6139,-1.6144,-1.6125,-1.6111,-1.6128,-1.6116,-1.6116,-1.612,-1.6102,-1.6141,-1.6131,-1.6108,-1.6075,-1.6128,-1.6146,-1.6153,-1.6051,-1.6049,-1.6049,-1.6048,0,0,-1.6225,-1.62,-1.6207,-1.6202,-1.6187,-1.6193,-1.6208,-1.6207,-1.6211,-1.6206,-1.6218,-1.6226,-1.6205,-1.6203,-1.6184,-1.6198,-1.6246,-1.6174,-1.6173,-1.6187,-1.6288,-1.6305,-1.6315,-1.623,-1.6232,-1.6233,-1.6289,0,-1.6282,-1.6304,-1.6279,-1.6308,-1.6315,-1.628,-1.6293,-1.6285,-1.6272,-1.6277,-1.6263,-1.6269,-1.624,-1.6239,-1.6252,-1.6237,-1.6266,-1.6233,-1.6242,-1.6242,-1.6245,-1.6324,-1.6342,-1.6396,-1.6296,-1.6297,-1.6298,0,-1.635,-1.6348,-1.6377,-1.6359,-1.6362,-1.6373,-1.6371,-1.6376,-1.6367,-1.6356,-1.6355,-1.6332,-1.6346,-1.6314,-1.6333,-1.6311,-1.6313,-1.6307,-1.6309,-1.6308,-1.6273,-1.6326,-1.6412,-1.642,-1.6309,-1.6308,-1.6307,0,-1.6416,-1.642,-1.6437,-1.6434,-1.6415,-1.6424,-1.6417,-1.6406,-1.6407,-1.6405,-1.6405,-1.6406,-1.6406,-1.6406,-1.6385,-1.6363,-1.6407,-1.6373,-1.6399,-1.6399,-1.6409,-1.6409,-1.6497,-1.6411,-1.6411,-1.6411,-1.6411,0,-1.6482,-1.6501,-1.6466,-1.6477,-1.6498,-1.6469,-1.6491,-1.648,-1.647,-1.6479,-1.6449,-1.6458,-1.6429,-1.6435,-1.6418,-1.6436,-1.6437,-1.6429,-1.6424,-1.6432,-1.6433,-1.6432,-1.6428,-1.6413,-1.6412,-1.6412,-1.6412,0,-1.6558,-1.6536,-1.6553,-1.6533,-1.6528,-1.6544,-1.6527,-1.6537,-1.6522,-1.6533,-1.6534,-1.6511,-1.6517,-1.6495,-1.6497,-1.6486,-1.6513,-1.6503,-1.6516,-1.6513,-1.654,-1.6538,-1.6631,-1.6642,-1.6549,-1.655,-1.6551,0,-1.6601,-1.6615,-1.6596,-1.6599,-1.6593,-1.6599,-1.66,-1.6573,-1.6575,-1.6566,-1.6577,-1.658,-1.6581,-1.6591,-1.6575,-1.6577,-1.6566,-1.6598,-1.6566,-1.6573,-1.6566,-1.6566,-1.6567,-1.6605,-1.6606,-1.6607,-1.6608,0,-1.6681,-1.6669,-1.667,-1.6669,-1.667,-1.6668,-1.6663,-1.6668,-1.6639,-1.6643,-1.6648,-1.6648,-1.665,-1.6654,-1.6652,-1.6645,-1.6622,-1.6618,-1.6625,-1.6632,-1.6639,-1.6636,-1.6535,-1.6616,-1.6616,-1.6615,-1.6615,-1.6614,-1.6742,-1.6752,-1.674,-1.6744,-1.6737,-1.6734,-1.6742,-1.6727,-1.6731,-1.673,-1.6714,-1.6722,-1.6713,-1.6708,-1.6703,-1.671,-1.6695,-1.6703,-1.6706,-1.6708,-1.6713,-1.6639,-1.6709,-1.6709,-1.6709,-1.6709,-1.6709,0,-1.6819,-1.681,-1.6813,-1.6807,-1.681,-1.6787,-1.6781,-1.6785,-1.6792,-1.6785,-1.6787,-1.6793,-1.6796,-1.678,-1.6781,-1.679,-1.6779,-1.6791,-1.679,-1.6789,-1.6726,-1.6721,-1.6799,-1.6799,-1.6799,-1.6799,-1.6799,-1.6799,-1.686,-1.6876,-1.6863,-1.6877,-1.6867,-1.6874,-1.6873,-1.687,-1.6864,-1.6872,-1.6874,-1.6863,-1.6853,-1.6853,-1.6856,-1.6851,-1.6853,-1.6868,-1.686,-1.6802,-1.6793,-1.6785,-1.678,-1.6869,-1.6869,-1.6922,-1.6922,-1.6923]},{"header":{"parameterUnit":"m.s-1","parameterCategory":1,"la1":30.2991,"la2":30.254,"lo1":-89.0895,"lo2":-89.0444,"dy":0.0017,"dx":0.0017,"nx":28,"ny":28,"refTime":"2025-04-23T09:00:00:Z","depth":0,"parameterNumber":3,"parameterNumberName":"V-component_of_WINDS"},"data":[0,0,0,0,0,0,0,0,0,0,0,0,0,0,0,0,0,0,0,0,0,0,0,0,0,0,0,0,0,0,0,0,0,0,0,0,0,0,0,0,0,0,0,0,0,0,0,0,0,0,0,0,0,0,0,0,0,0,1.6644,1.6644,0,1.6624,1.6624,1.6624,1.6599,1.6598,1.6598,1.6598,1.6576,1.6576,1.6575,0,0,0,0,0,0,0,0,0,0,0,0,0,1.6659,1.6659,1.6644,1.6644,1.6644,1.6624,1.6624,1.6624,1.6599,1.6598,1.6598,1.6597,1.6576,1.6576,1.6575,0,0,0,0,0,0,0,0,0,0,0,0,0,1.6648,1.6659,1.6644,1.6629,1.6627,1.6625,1.6624,1.6624,1.6599,1.6598,1.6598,1.6597,1.6576,1.6576,1.6575,1.6585,0,0,1.6574,1.6574,0,0,0,0,0,0,0,0,1.6648,1.6647,1.6631,1.663,1.6628,1.6613,1.6621,1.6611,1.6599,1.661,1.6598,1.6597,1.6589,1.6587,1.6585,1.6584,1.6583,1.6574,1.6574,1.6574,1.6574,0,0,0,0,0,0,0,1.6649,1.6648,1.6636,1.6631,1.6629,1.6623,1.662,1.6619,1.6603,1.6609,1.6607,1.6605,1.6588,1.6585,1.6584,1.6583,1.6574,1.6574,1.6574,1.6574,1.6591,1.6591,0,0,0,0,0,0,1.6652,1.6649,1.6637,1.6636,1.6637,1.6623,1.662,1.6619,1.6603,1.66,1.6605,1.6604,1.6586,1.6585,1.6583,1.6594,1.6574,1.6574,1.6574,1.659,1.6591,1.6591,0,0,0,0,0,0,1.6653,1.6652,1.6638,1.6642,1.6639,1.6623,1.6622,1.6619,1.6616,1.66,1.6597,1.6606,1.6585,1.6584,1.6585,1.6593,1.6574,1.6573,1.6589,1.659,1.6591,1.6617,0,0,0,0,0,0,1.6653,1.6652,1.6656,1.6642,1.6639,1.6641,1.6622,1.6619,1.6616,1.6614,1.66,1.6597,1.6585,1.6586,1.6585,1.6592,1.6573,1.6588,1.659,1.6591,1.6615,1.6618,1.6621,0,0,0,0,0,1.6654,1.6663,1.6656,1.6655,1.6644,1.6641,1.6639,1.6626,1.6617,1.662,1.661,1.6598,1.6593,1.6586,1.6585,1.6593,1.6588,1.6589,1.6591,1.6614,1.6618,1.6621,0,0,0,0,0,0,1.6678,1.6661,1.6653,1.6658,1.6651,1.6637,1.6641,1.663,1.6625,1.6623,1.6606,1.6603,1.6607,1.66,1.6593,1.6602,1.6588,1.659,1.6606,1.661,1.6613,1.6615,1.6573,0,0,0,0,0,1.6684,1.6683,1.6669,1.6675,1.6672,1.6657,1.6655,1.6645,1.6637,1.6634,1.6624,1.6616,1.6613,1.6611,1.6607,1.6614,1.6611,1.6619,1.6622,1.6624,1.6626,1.6629,1.6632,1.6596,1.6596,1.6596,0,0,1.6696,1.6687,1.6687,1.6679,1.6673,1.6672,1.6655,1.6655,1.6654,1.6634,1.6635,1.6627,1.6618,1.6622,1.6623,1.6616,1.6635,1.6626,1.6628,1.6628,1.6631,1.6634,1.6637,1.6597,1.6597,1.6597,0,0,1.6718,1.6711,1.6715,1.6709,1.67,1.669,1.6692,1.6679,1.6673,1.6674,1.6659,1.6658,1.6653,1.6646,1.6643,1.6663,1.6651,1.6662,1.6678,1.6682,1.6685,1.6687,1.6695,1.6698,1.6664,1.6664,1.6664,0,1.6734,1.6733,1.6719,1.672,1.6717,1.6699,1.6704,1.6698,1.6688,1.6686,1.6679,1.6672,1.6664,1.6667,1.6672,1.667,1.667,1.6664,1.6686,1.6688,1.669,1.6697,1.67,1.6665,1.6665,1.6665,1.6665,0,1.6754,1.6753,1.6758,1.6749,1.6747,1.6749,1.6735,1.6735,1.6725,1.6716,1.6718,1.6708,1.6702,1.6702,1.6692,1.6703,1.6699,1.6689,1.6675,1.6695,1.6701,1.6704,1.6667,1.6667,1.6666,1.6666,0,0,1.679,1.6773,1.6775,1.6771,1.676,1.6759,1.6761,1.6756,1.6756,1.6749,1.6751,1.6747,1.6738,1.6733,1.6723,1.6726,1.6743,1.6715,1.6715,1.6721,1.6756,1.6764,1.6767,1.6736,1.6736,1.6736,1.6756,0,1.681,1.6813,1.68,1.6806,1.6806,1.6789,1.6791,1.6784,1.6776,1.6775,1.6765,1.6763,1.6751,1.6748,1.6751,1.6741,1.675,1.6739,1.6736,1.6737,1.674,1.677,1.6778,1.6798,1.6759,1.6759,1.6759,0,1.6833,1.6829,1.6835,1.6824,1.6823,1.6825,1.682,1.6818,1.681,1.6804,1.68,1.6788,1.6789,1.6776,1.6778,1.6771,1.6769,1.6764,1.6764,1.6763,1.6749,1.677,1.6803,1.6807,1.6763,1.6763,1.6763,0,1.6859,1.6855,1.6858,1.6855,1.6842,1.6844,1.6838,1.683,1.6828,1.6823,1.6821,1.6816,1.6813,1.681,1.6797,1.6789,1.68,1.6786,1.6795,1.6795,1.6798,1.6798,1.6832,1.6797,1.6797,1.6797,1.6797,0,1.6883,1.6887,1.687,1.6872,1.6876,1.6862,1.6867,1.686,1.6853,1.6853,1.6838,1.6838,1.6822,1.682,1.681,1.6813,1.6812,1.6807,1.6804,1.6808,1.6809,1.6807,1.6805,1.6797,1.6797,1.6797,1.6797,0,1.6912,1.6901,1.6903,1.6891,1.6888,1.6892,1.6881,1.6883,1.6874,1.6875,1.6874,1.686,1.6858,1.6845,1.6839,1.6832,1.6839,1.6833,1.6842,1.684,1.685,1.6849,1.6883,1.6887,1.685,1.685,1.6851,0,1.6928,1.6932,1.692,1.6919,1.6915,1.6914,1.6912,1.6898,1.6896,1.6888,1.689,1.6887,1.6883,1.688,1.6869,1.6865,1.686,1.6872,1.6859,1.6863,1.686,1.686,1.686,1.6875,1.6875,1.6875,1.6876,0,1.6958,1.6952,1.695,1.6946,1.6944,1.694,1.6935,1.6935,1.692,1.6919,1.6916,1.6914,1.6909,1.6905,1.69,1.6894,1.6882,1.688,1.6882,1.6886,1.6891,1.6889,1.685,1.6879,1.6879,1.6879,1.6878,1.6878,1.6981,1.6984,1.6976,1.6974,1.6969,1.6965,1.6966,1.6957,1.6955,1.695,1.6942,1.6941,1.6933,1.6924,1.6919,1.6918,1.6912,1.6914,1.6915,1.6916,1.6918,1.6891,1.6917,1.6917,1.6917,1.6917,1.6917,0,1.701,1.7005,1.7003,1.6997,1.6996,1.6985,1.698,1.6979,1.6978,1.6972,1.6969,1.6967,1.6964,1.6953,1.6949,1.6951,1.6945,1.695,1.695,1.6949,1.6924,1.6923,1.6954,1.6954,1.6954,1.6954,1.6954,1.6954,1.7025,1.7029,1.7022,1.7023,1.7017,1.7017,1.7014,1.701,1.7005,1.7004,1.7001,1.6995,1.6987,1.6982,1.6979,1.6976,1.6975,1.6981,1.6977,1.6954,1.695,1.6947,1.6946,1.6981,1.6981,1.7001,1.7001,1.7001]}]]